Location: Shenandoah County Park
(38.9356°N, 78.4524°W)
Time: 06:17:18
(UTC-04:00)

Transit 2A - Pass Details

Date: 15 June 2024
Orbit: 591 x 960 km, 66.7° (Epoch: 23 July)

Event Time Altitude Azimuth Distance (km) Brightness Sun altitude
Rises 04:01:46 0° 322° (NW) 3,559 9.6 -16.5°
Reaches altitude 10° 04:04:28 10° 313° (NW) 2,648 8.8 -16.1°
Maximum altitude 04:10:00 34° 251° (WSW) 1,511 7.1 -15.4°
Enters shadow 04:13:51 18° 198° (SSW) 2,146 7.8 -14.9°
